FW8363 Weather Reports


Display with metric or nautical units.
time (UTC)temp
F
wind
direction
speed
MPH
gust
MPH
rain 1hr
in
rain 24hr
in
rain mn
in
humidity
%
barometer
mb
20260503003649 -88 155 0.0 3.0 0.00 0.00 0.00 1014.9
20260503003012 -88 189 1.0 3.0 0.00 0.00 0.00 1014.8
20260503001603 -88 237 0.0 2.0 0.00 0.00 0.00 1014.7
20260502235608 -88 207 1.0 4.0 0.00 0.00 0.00 1014.5
20260502233607 -88 202 1.0 4.0 0.00 0.00 0.00 1014.2
20260502233002 -88 221 1.0 4.0 0.00 0.00 0.00 1014.1
20260502231548 -88 236 0.0 4.0 0.00 0.00 0.00 1014.0
20260502225625 -86 179 2.0 4.0 0.00 0.00 0.00 1013.6
20260502223548 -86 220 0.0 3.0 0.00 0.00 0.00 1013.5
20260502221503 -86 112 2.0 6.0 0.00 0.00 0.00 1013.4
20260502213525 -86 161 0.0 8.0 0.00 0.00 0.00 1013.3
20260502212147 -86 217 3.0 8.0 0.00 0.00 0.00 1013.2
20260502211504 -86 118 3.0 10.0 0.00 0.00 0.00 1013.1
20260502205513 -86 180 2.0 7.0 0.00 0.00 0.00 1013.1
20260502203543 -86 232 2.0 9.0 0.00 0.00 0.00 1013.4
20260502201526 -86 210 2.0 7.0 0.00 0.00 0.00 1013.7
20260502195603 -86 188 3.0 9.0 0.00 0.00 0.00 1013.9
20260502193548 -86 242 4.0 10.0 0.00 0.00 0.00 1014.1
20260502191510 -86 220 4.0 9.0 0.00 0.00 0.00 1014.2
20260502185602 -86 212 4.0 8.0 0.00 0.00 0.00 1014.4
20260502183543 -86 199 5.0 10.0 0.00 0.00 0.00 1014.5
20260502181548 -86 170 5.0 12.0 0.00 0.00 0.00 1014.4
20260502163550 -84 167 4.0 11.0 0.00 0.00 0.00 1014.8
20260502161503 -86 184 4.0 14.0 0.00 0.00 0.00 1014.9
20260502151526 -86 221 4.0 11.0 0.00 0.00 0.00 1014.7
20260502123003 -79 201 6.0 14.0 0.00 0.00 0.00 1014.2
20260502121605 -79 140 6.0 15.0 0.00 0.00 0.00 1014.2
20260502115647 -79 171 4.0 13.0 0.00 0.00 0.00 1014.1
20260502113600 -79 162 8.0 15.0 0.00 0.00 0.00 1014.2
20260502111502 -86 176 3.0 13.0 0.00 0.00 0.00 1014.1
20260502104607 -88 149 7.0 12.0 0.00 0.00 0.00 1013.9
20260502103156 -88 138 7.0 14.0 0.00 0.00 0.00 1013.7
20260502100124 -86 176 8.0 14.0 0.00 0.00 0.00 1013.7
20260502064658 -88 194 6.0 12.0 0.00 0.00 0.00 1013.9
20260502054006 -88 153 8.0 13.0 0.00 0.00 0.00 1014.2
20260502051642 -88 137 5.0 11.0 0.00 0.00 0.00 1014.4
20260502044646 -88 120 7.0 11.0 0.00 0.00 0.00 1014.6
20260502043109 -88 138 6.0 12.0 0.00 0.00 0.00 1014.8
20260502041615 -88 137 5.0 11.0 0.00 0.00 0.00 1014.7
20260502034653 -88 168 6.0 10.0 0.00 0.00 0.00 1014.6
20260502033204 -88 137 6.0 10.0 0.00 0.00 0.00 1014.3
20260502031658 -88 144 4.0 9.0 0.00 0.00 0.00 1014.5
20260502015037 -90 138 4.0 8.0 0.00 0.00 0.00 1014.0
20260502013552 -90 122 5.0 9.0 0.00 0.00 0.00 1013.7
20260502012117 -90 120 5.0 7.0 0.00 0.00 0.00 1013.7
20260502010112 -90 126 4.0 8.0 0.00 0.00 0.00 1013.6